Theta_e
301 299 297 297 298 299 300 300 298 295 297 297 297 297 294 295 296 296 295 296 295 296 297 299 299 299 300 302 303 304 305 301 300 300 301 302 303 303 304 304 305 306 306 312 308 307 306 307 306 307 308 310 311 311 311 312 312 312 312 312 311 310 309 309 307 306 306 306 307 308 309 309 307 305 303 302 302 302 304 305 307 307 307 306 305 305
301 297 298 300 299 300 300 297 296 296 297 297 296 295 295 295 294 297 296 295 297 295 297 297 297 298 299 301 303 304 302 301 302 302 302 302 303 304 305 305 306 306 308 308 305 304 305 305 306 306 307 309 309 310 311 311 311 311 312 311 312 308 308 309 310 308 308 308 311 311 310 308 304 301 302 301 300 299 301 303 304 304 305 304 303 302
297 295 298 299 297 297 296 296 297 297 296 297 296 296 294 296 297 296 294 295 296 295 295 298 295 297 299 301 303 303 302 303 304 304 304 304 305 305 305 305 306 307 307 307 305 305 304 305 305 305 306 308 310 310 310 311 311 311 310 311 310 307 307 308 310 309 309 309 307 309 306 303 300 299 300 301 299 297 297 298 300 301 303 302 301 301
293 297 300 296 298 297 294 295 296 296 297 297 295 293 293 296 292 292 295 294 294 295 296 296 294 296 299 301 302 303 303 303 305 305 304 305 303 304 305 306 307 307 307 307 306 304 303 304 303 304 305 307 310 310 310 310 310 310 310 311 310 308 307 307 308 308 305 301 300 302 301 299 299 298 296 297 296 296 297 296 297 297 298 300 300 298
294 297 294 296 298 298 295 294 296 296 295 297 297 296 295 295 296 293 294 295 294 294 293 294 294 295 299 299 301 304 302 301 302 303 303 304 305 305 306 307 307 306 306 307 307 305 302 302 302 303 305 308 308 309 310 310 310 309 310 310 309 307 307 308 307 304 300 298 298 296 296 297 295 295 295 296 295 294 295 294 294 295 296 298 298 297
296 296 296 295 296 297 296 293 296 298 294 295 297 297 297 297 295 293 294 295 295 295 294 294 289 292 297 297 297 301 301 301 303 302 303 304 304 304 303 304 305 306 307 306 306 306 304 302 302 303 305 306 308 309 310 311 311 310 310 310 308 307 306 306 306 301 300 299 299 296 296 296 295 294 294 296 295 293 293 294 294 293 294 295 296 297
297 294 299 296 296 296 296 296 297 298 295 293 294 298 298 297 295 295 294 294 291 289 294 293 288 287 295 295 298 301 300 300 303 304 304 305 305 305 305 306 306 306 306 306 305 305 304 303 302 303 304 306 308 309 310 311 310 310 309 309 309 307 306 305 301 301 300 300 300 299 300 302 299 297 297 300 299 297 296 294 292 292 293 294 294 295
295 294 294 297 296 296 295 293 296 296 296 293 294 293 296 295 294 295 295 295 293 295 296 292 294 288 289 295 300 300 299 300 301 302 304 306 305 305 305 306 307 308 307 307 306 304 304 304 303 302 304 306 307 309 310 310 310 309 309 308 307 306 305 304 301 300 301 300 299 301 302 303 303 303 302 301 299 296 293 292 291 291 292 293 293 293
296 295 295 295 296 295 294 297 299 298 296 294 292 295 296 296 297 295 295 294 293 291 289 291 296 288 289 295 296 297 296 297 299 301 304 306 307 306 306 306 307 307 307 306 306 305 303 303 303 303 303 306 307 309 309 309 309 309 309 308 307 306 304 303 300 300 301 302 301 303 305 304 307 305 301 297 295 293 292 291 290 290 291 292 292 292
293 297 298 299 296 294 296 291 295 298 295 291 293 295 295 295 295 296 294 294 292 290 287 290 293 287 288 295 294 296 296 298 299 302 305 306 305 306 307 307 306 305 304 304 304 305 304 303 303 303 304 305 307 308 309 309 309 309 308 307 305 306 304 302 300 300 301 302 303 305 306 306 303 298 294 294 293 292 292 291 290 290 290 291 290 291
294 295 295 297 297 297 293 292 292 296 296 295 298 298 296 295 295 294 295 293 291 286 289 291 293 291 286 294 294 293 296 299 301 302 303 305 305 306 306 306 306 303 302 302 302 301 302 302 302 302 302 304 306 308 308 308 308 308 307 306 305 304 304 301 299 299 300 302 304 304 304 303 298 296 295 294 292 291 291 291 290 290 291 291 290 290
295 295 296 296 294 295 297 294 295 293 295 298 298 296 296 293 294 293 291 291 286 285 290 291 293 293 284 291 296 299 299 297 300 301 302 304 305 310 309 305 302 301 301 301 300 300 299 299 299 301 301 303 305 306 307 307 307 306 306 306 305 304 302 300 299 299 299 300 301 303 303 301 297 296 295 294 291 290 291 291 290 290 290 290 291 291
292 294 296 295 296 297 298 296 294 295 295 297 297 295 288 287 286 284 287 283 284 284 287 287 289 288 287 292 297 298 299 301 301 300 301 304 304 306 307 306 304 302 300 300 300 300 299 299 299 299 300 302 304 305 306 306 306 306 306 305 304 304 303 299 298 298 298 298 299 300 301 300 296 296 296 294 292 292 292 292 292 290 289 290 290 290
292 294 294 296 295 297 300 293 291 290 293 295 293 291 287 283 282 279 284 282 282 286 285 287 292 286 293 295 299 299 301 302 303 303 303 302 303 304 306 307 304 302 301 301 301 300 300 300 300 300 300 302 303 305 305 305 305 305 305 305 304 304 302 299 297 297 297 298 299 299 298 297 296 296 296 295 294 294 295 294 293 292 292 291 291 291
285 285 291 294 292 300 297 297 297 295 294 294 299 295 289 288 284 279 282 280 283 285 283 287 286 285 287 293 297 300 302 302 302 303 304 303 303 304 304 304 304 303 301 301 301 300 300 300 300 300 300 302 303 304 305 305 305 305 304 304 304 304 301 299 297 297 297 297 298 298 296 294 294 295 296 295 296 295 294 294 294 293 293 292 293 292
289 290 294 298 296 299 296 300 301 298 295 296 296 297 290 289 290 284 286 285 283 284 284 282 284 292 293 298 298 300 299 300 300 300 300 300 302 303 304 304 304 302 301 302 300 300 300 300 300 300 300 302 303 304 304 305 305 304 304 304 304 304 299 298 297 297 297 296 296 296 295 294 293 293 293 293 293 295 295 293 293 293 293 293 293 292
286 286 291 294 295 297 297 297 298 298 287 293 293 289 292 296 294 286 282 282 282 283 282 289 287 291 296 297 299 300 300 299 300 299 299 301 302 303 303 305 303 302 303 303 301 301 301 299 299 299 300 301 303 303 304 304 305 304 304 303 303 304 300 297 296 297 297 296 295 295 295 293 292 292 292 291 291 291 292 292 293 293 293 292 292 290
288 289 289 292 291 294 293 294 299 295 297 293 288 293 294 298 297 290 284 284 283 281 283 286 285 288 289 286 296 296 296 298 300 300 301 303 304 303 304 306 305 303 303 303 302 302 301 300 298 298 299 301 302 303 304 304 305 305 304 304 303 303 300 297 297 297 297 296 295 295 294 293 292 292 292 291 291 291 290 290 291 291 291 290 290 290
294 286 290 288 291 294 294 296 296 297 296 295 293 302 292 287 285 290 287 280 280 279 282 287 287 287 289 290 295 295 296 298 299 301 301 301 302 303 305 306 305 304 302 301 301 300 298 298 298 298 298 300 302 303 304 304 305 305 305 304 304 303 301 299 298 297 297 297 296 295 295 294 292 291 290 290 290 289 288 288 289 290 289 289 289 288
295 287 288 289 291 293 295 295 288 292 296 296 296 294 296 292 289 286 287 287 286 282 280 283 286 285 294 294 296 296 298 299 300 301 301 302 303 304 306 307 306 304 303 304 303 301 299 298 297 298 298 298 300 302 303 303 304 303 304 303 303 304 302 298 297 298 296 297 296 295 294 293 292 291 290 289 288 287 287 288 289 289 288 288 287 288
291 292 285 289 292 293 288 292 291 293 290 290 292 291 292 289 293 292 291 287 286 283 282 282 281 287 294 299 298 298 299 300 301 301 304 304 305 306 305 304 304 303 305 305 303 301 299 298 297 297 298 299 300 301 302 303 302 303 303 302 303 303 302 298 297 297 297 297 296 294 292 292 291 290 289 288 288 287 288 288 288 288 287 287 287 288
289 289 286 289 288 288 292 297 297 297 296 294 292 291 292 289 287 284 283 289 285 285 282 281 281 289 297 297 299 299 301 302 304 304 304 305 305 307 305 302 301 303 304 303 301 299 298 297 296 296 297 298 298 299 300 301 302 301 301 302 302 302 301 297 297 297 297 296 296 294 293 291 290 290 289 287 287 287 287 287 287 287 286 286 287 287
296 292 289 286 289 291 293 292 289 290 295 297 295 294 296 294 292 288 282 284 284 286 285 286 283 287 300 299 300 301 301 301 302 302 303 305 306 304 304 302 302 301 302 300 298 297 296 296 296 296 296 296 296 298 299 300 300 300 300 300 301 300 298 297 296 296 296 295 294 294 293 290 289 289 289 288 287 286 286 286 285 286 285 286 286 287
294 289 287 289 294 293 293 292 292 292 294 293 294 292 293 291 293 291 289 288 287 287 285 285 281 287 298 297 299 297 297 297 297 299 301 302 302 303 302 301 302 301 300 299 297 295 295 295 295 294 294 295 295 296 297 299 300 300 300 299 299 299 297 296 295 294 294 294 294 294 292 290 288 287 286 286 286 285 285 284 284 285 285 285 286 286
289 290 289 286 285 288 289 292 292 293 293 291 292 294 294 295 295 292 289 288 287 288 287 286 281 287 296 291 294 295 295 296 297 297 297 299 301 303 301 301 300 299 299 297 297 295 294 293 293 294 295 295 295 296 297 298 298 299 299 299 298 299 298 296 296 294 294 293 293 292 291 290 288 286 285 285 285 285 284 284 284 284 284 285 285 285
291 290 288 282 280 279 279 281 283 285 288 292 289 293 294 293 293 289 286 288 284 287 288 286 286 292 297 299 298 295 295 297 298 299 297 298 300 300 301 301 300 298 298 298 298 295 294 294 294 294 294 295 295 295 296 297 298 298 298 298 298 298 298 296 295 294 293 293 292 291 290 289 288 287 285 284 284 284 284 284 283 283 284 285 285 285
287 290 290 289 287 285 287 290 294 295 290 287 290 291 292 293 294 293 291 288 285 288 287 289 290 291 294 296 297 297 296 298 300 301 299 300 300 300 299 298 299 298 298 297 299 299 295 294 293 293 294 295 295 295 296 296 297 297 297 297 298 298 298 296 294 293 292 292 291 290 290 289 288 287 286 285 285 284 283 283 283 283 283 284 285 284
287 287 290 291 292 293 294 294 295 296 291 292 290 289 292 291 291 289 288 286 291 288 284 291 293 288 291 295 297 298 298 296 299 301 301 300 301 303 302 299 296 296 296 295 295 295 296 296 295 293 293 294 294 295 295 296 296 296 297 297 297 297 297 295 293 292 291 291 290 290 289 288 288 287 286 285 285 284 284 283 283 283 284 284 284 283
289 287 291 292 290 294 295 295 296 294 295 294 293 293 291 292 290 287 288 292 293 288 286 292 294 290 293 296 298 299 300 300 301 302 303 302 301 299 299 299 300 300 299 296 296 297 297 297 296 294 293 293 294 294 294 294 295 295 296 297 297 296 296 295 292 291 291 290 290 290 289 288 287 286 285 285 284 283 283 283 283 283 283 284 284 284
292 288 291 293 291 293 294 294 295 294 292 293 294 294 294 292 290 291 291 293 293 291 294 294 294 294 297 298 299 301 302 302 302 304 303 300 299 302 303 303 301 301 300 299 299 298 298 298 297 295 294 293 293 293 293 294 294 294 295 295 296 296 296 295 292 291 290 290 290 290 289 288 287 286 286 285 284 283 283 283 283 283 283 283 284 284
289 287 292 291 288 288 292 294 294 293 290 288 292 293 293 293 292 292 292 293 294 293 294 294 293 293 298 301 301 303 302 303 302 301 301 302 303 303 303 303 303 301 302 301 301 300 299 298 296 295 294 293 293 293 293 294 294 294 294 295 294 294 295 294 292 291 290 290 290 289 289 288 287 286 285 285 284 284 283 283 283 283 283 283 283 283
290 288 292 289 286 286 290 291 291 290 290 288 288 290 290 290 289 291 290 294 292 290 292 292 290 291 297 301 302 301 302 300 299 300 301 302 302 302 302 303 303 303 303 303 303 302 299 297 296 295 294 293 293 293 294 294 294 294 293 294 294 294 294 293 292 291 290 290 289 289 288 287 286 285 285 284 284 283 283 283 282 282 282 283 282 282
287 287 287 287 284 285 289 291 289 288 287 284 285 289 291 292 293 294 295 295 295 295 291 288 290 296 299 300 299 299 300 297 300 300 301 302 302 303 303 303 304 305 305 306 306 305 303 301 298 296 295 295 295 294 294 295 294 293 294 293 293 293 292 291 291 291 290 290 289 289 288 287 286 285 284 284 284 283 283 283 282 282 282 282 282 282
288 288 287 289 284 285 287 288 288 285 278 280 292 295 295 293 293 290 291 293 295 296 294 297 297 299 300 300 299 299 299 300 301 303 304 304 303 303 303 304 305 305 306 306 306 306 306 305 302 299 297 297 297 296 295 295 294 294 294 294 293 291 291 291 291 291 291 290 289 288 287 287 286 285 285 284 284 284 283 282 282 282 282 282 282 281
287 288 288 289 285 284 287 287 284 277 280 291 296 297 297 296 296 294 294 295 296 297 297 296 296 297 299 300 301 301 302 303 302 301 302 302 304 304 304 304 304 304 305 305 305 305 305 304 303 301 298 297 296 296 294 293 294 294 293 293 292 291 290 290 290 290 291 290 289 288 287 286 286 285 285 284 284 284 283 282 282 282 282 282 281 280
289 288 289 287 287 287 285 284 278 279 287 291 295 296 298 298 297 295 293 296 296 297 297 296 297 298 299 300 301 302 302 301 300 300 300 301 303 303 303 304 305 305 304 305 305 305 305 304 302 301 300 299 297 295 294 293 293 293 292 292 291 290 290 289 289 289 290 290 289 287 287 287 286 285 285 284 284 283 283 282 282 282 282 282 281 281
293 290 288 284 288 281 284 284 283 290 289 292 293 294 294 292 293 292 288 292 297 298 298 297 297 298 299 300 301 301 301 300 299 300 303 302 301 301 302 303 305 305 306 306 305 305 305 305 304 303 301 297 295 293 293 293 292 292 291 290 290 289 289 288 288 289 289 289 288 288 288 287 286 285 284 284 283 283 283 282 282 282 282 282 282 281
296 290 290 285 284 287 283 282 283 282 279 286 295 298 301 300 300 300 294 290 298 299 300 298 298 298 299 299 300 300 302 295 294 297 302 303 303 303 302 303 303 304 304 305 305 304 303 302 298 296 298 295 293 293 293 292 291 291 289 289 289 288 288 287 288 289 288 288 289 288 287 287 286 285 284 284 283 283 283 283 283 282 283 282 281 281
295 295 290 287 285 286 283 281 280 279 283 290 292 296 298 298 300 296 291 287 295 297 299 300 299 299 299 299 299 299 295 292 293 298 302 304 303 303 302 302 302 302 303 303 303 302 300 297 295 294 293 293 291 291 291 290 290 289 288 288 288 288 287 287 288 288 288 288 289 288 287 287 286 286 285 284 284 284 283 283 283 283 282 282 283 281
289 289 289 285 283 285 284 282 280 285 285 291 292 294 294 297 298 294 283 283 295 298 299 298 297 298 298 299 299 298 294 292 294 299 304 303 302 302 301 301 301 300 300 299 296 295 295 294 291 290 291 290 291 290 289 289 289 288 288 288 288 287 287 288 288 289 289 289 289 287 287 286 285 285 285 284 284 284 284 284 283 283 282 282 282 281
285 286 287 283 285 285 285 283 286 286 292 293 291 293 292 298 295 285 281 290 294 296 297 298 298 299 299 298 298 294 298 300 301 303 299 292 296 295 294 292 293 291 293 294 294 289 291 291 292 292 291 291 289 288 288 288 288 287 287 287 287 286 288 288 289 289 289 288 288 287 287 286 286 285 285 285 285 284 284 284 283 283 282 281 281 280
285 286 286 287 284 283 285 282 283 287 290 293 291 292 295 293 285 284 294 297 297 294 295 298 299 299 299 299 299 300 301 302 301 302 300 296 295 293 291 290 289 289 288 287 287 288 290 289 289 289 288 288 288 287 288 287 287 287 287 286 286 287 289 289 289 289 288 287 286 286 286 286 286 286 285 285 285 284 284 284 283 282 281 281 280 279
286 284 282 284 286 286 285 281 281 277 289 296 294 293 293 290 291 297 295 292 293 291 291 294 297 299 299 299 300 301 300 301 301 301 300 298 294 293 291 289 290 291 291 289 288 287 288 288 287 287 287 286 286 287 287 286 286 286 286 285 286 288 288 288 288 287 287 286 286 285 285 285 285 285 285 285 285 284 283 283 282 281 281 280 280 279
290 285 284 286 289 283 282 280 281 289 292 295 296 291 293 296 299 295 299 298 294 291 293 294 294 297 298 299 299 299 300 298 298 295 292 290 289 288 287 288 288 288 288 288 288 288 287 288 287 286 285 285 286 286 286 286 285 285 285 285 288 287 287 287 287 286 286 285 285 285 285 285 285 285 285 284 284 284 282 281 281 281 281 280 280 279
290 287 289 286 291 287 285 289 291 288 291 296 298 299 300 301 300 296 296 298 299 298 292 294 295 295 296 296 297 297 296 296 296 296 294 294 291 289 288 288 287 288 288 287 287 285 286 286 285 285 284 285 285 286 286 286 285 284 284 286 286 286 286 286 285 285 285 285 284 284 285 285 285 285 284 284 284 283 282 281 281 280 280 280 280 280
292 290 289 287 287 292 292 292 291 290 290 292 295 297 297 300 300 299 297 297 297 299 295 294 296 296 294 294 294 294 295 296 296 293 290 290 289 288 286 285 284 284 284 284 283 284 284 284 284 284 283 283 285 285 285 286 285 284 285 286 286 286 285 285 285 284 284 284 284 284 284 284 284 284 284 283 284 283 282 281 280 280 279 280 280 280
288 288 288 285 287 287 284 294 292 293 294 293 295 297 297 296 298 296 295 295 297 296 294 293 293 293 292 292 292 294 295 295 293 293 291 290 289 287 286 285 284 283 283 283 283 282 283 283 283 283 283 282 283 284 285 285 285 285 285 284 285 285 285 284 284 284 284 284 284 283 283 283 282 282 282 282 283 282 282 281 282 281 279 280 280 280
285 291 286 285 286 285 285 291 291 293 293 293 294 293 294 297 297 295 293 293 292 290 290 291 290 289 290 290 291 292 294 294 292 292 290 288 287 285 284 284 283 282 282 283 282 282 283 283 283 282 282 282 283 284 283 284 283 284 284 284 285 284 285 284 284 284 283 283 282 282 282 282 277 279 281 281 282 282 281 281 282 281 280 280 280 280
288 288 282 286 284 286 289 290 291 292 293 294 295 295 294 292 292 293 293 290 289 289 291 291 290 291 291 291 293 292 291 293 291 291 290 288 286 284 284 284 283 282 281 280 280 281 283 283 283 282 282 281 281 281 281 280 280 281 282 283 283 284 284 283 282 282 281 281 281 281 281 281 280 281 281 281 281 281 281 281 281 281 280 280 281 281
288 284 288 287 282 283 283 286 290 285 285 290 293 294 295 294 292 291 292 291 291 291 291 291 292 291 289 290 290 291 290 292 292 288 288 288 286 285 284 283 282 281 281 281 281 282 282 282 282 282 280 279 278 278 277 276 277 278 280 281 282 283 282 281 280 280 279 280 280 280 280 280 280 280 280 280 280 278 277 275 280 280 281 279 278 279
284 285 286 283 283 282 288 290 291 290 290 292 294 295 294 292 290 291 293 294 294 294 294 292 291 292 290 288 288 288 289 291 291 288 287 286 285 285 284 282 281 280 280 280 280 280 281 281 281 280 277 277 277 276 275 275 275 275 277 279 281 281 280 279 279 279 279 279 279 279 279 279 279 279 279 279 278 278 277 277 278 279 279 279 279 279
Wind_Speed
4 4 4 5 8 9 8 6 4 4 4 7 4 2 1 3 7 2 2 3 1 3 12 13 13 18 20 15 15 14 9 8 12 14 14 12 10 10 11 13 13 13 15 3 4 7 9 10 10 9 9 10 11 12 12 12 12 12 11 10 12 9 8 8 7 7 7 7 6 4 6 6 5 4 4 3 2 2 2 3 4 5 4 7 7 7
2 5 6 9 4 1 4 6 7 6 2 1 2 2 3 3 6 3 2 2 1 3 4 3 7 16 18 16 14 12 10 17 16 15 16 16 12 11 14 15 14 14 6 4 5 7 8 9 10 10 10 12 15 14 14 14 13 12 12 12 13 8 9 9 9 8 7 6 7 7 6 5 5 5 5 4 3 2 2 3 3 3 4 6 7 6
5 7 7 3 7 7 6 5 3 3 3 2 3 1 2 5 6 2 3 1 1 2 11 9 10 16 17 18 17 14 15 16 16 16 17 12 11 12 13 15 15 9 12 9 10 8 9 10 11 10 11 12 14 13 14 13 13 13 13 13 12 9 9 9 9 9 8 7 2 4 5 5 5 2 2 3 3 2 2 2 2 3 5 6 7 8
4 7 3 8 6 9 5 4 5 4 2 3 3 3 6 2 2 3 4 3 3 5 5 5 10 14 17 17 20 20 18 18 17 16 15 11 14 17 17 14 11 13 12 12 11 11 10 10 10 11 11 13 13 13 13 14 15 12 12 14 12 11 10 9 8 7 5 5 6 6 5 6 4 5 4 4 4 4 4 2 1 2 3 4 6 8
5 4 2 6 7 7 7 5 7 6 6 3 5 5 5 3 5 5 3 2 4 4 2 10 12 13 12 13 10 7 2 8 14 10 13 14 15 16 13 12 14 17 15 12 9 9 10 11 13 14 13 12 13 13 14 14 14 10 14 16 12 10 10 9 9 8 8 8 7 7 7 7 7 6 4 4 3 2 3 3 4 3 3 4 5 8
6 4 7 7 3 3 7 6 8 7 5 4 7 10 8 6 6 1 2 8 5 4 3 2 7 5 2 6 9 10 6 10 8 8 11 13 11 10 14 17 14 13 15 15 12 8 11 12 11 11 13 14 14 14 14 13 13 11 11 14 11 9 9 9 10 10 9 8 9 8 8 7 5 6 6 8 8 6 6 6 3 3 3 3 4 4
1 4 5 7 7 5 4 4 3 5 5 4 3 7 12 5 1 1 1 2 4 4 2 3 4 10 1 11 10 4 5 12 8 8 13 12 10 10 12 11 10 11 10 10 10 8 9 11 11 13 14 15 15 14 12 11 12 12 12 14 12 10 9 8 9 10 8 8 8 11 10 10 10 9 6 6 6 7 6 4 5 4 4 4 6 4
5 4 4 4 7 7 6 6 6 11 5 4 2 1 2 4 6 4 3 5 5 3 4 5 5 10 13 10 14 15 15 13 15 17 16 11 10 12 13 13 12 10 8 5 7 9 10 10 13 15 14 14 13 11 11 12 12 14 14 15 13 10 9 9 9 11 10 9 8 10 9 9 10 10 10 9 7 4 4 6 4 4 4 4 4 5
7 7 8 8 6 6 8 4 6 11 6 1 1 1 4 4 3 4 3 1 1 5 8 5 5 3 10 3 4 1 7 11 14 17 15 8 4 7 10 9 9 8 6 6 7 8 10 11 12 11 12 12 12 12 12 13 12 13 14 15 13 12 10 10 12 11 10 9 10 10 9 9 7 7 5 5 5 6 5 6 4 4 4 4 4 4
2 1 6 6 7 8 4 2 3 11 7 1 4 7 7 6 6 2 2 1 1 2 10 7 8 4 16 8 7 3 2 9 14 16 12 5 3 5 6 5 4 3 2 4 7 6 7 8 9 10 9 12 12 11 11 12 12 14 15 15 13 13 11 10 12 11 13 10 9 10 9 10 8 5 5 5 7 6 6 7 7 5 5 5 4 5
1 1 3 3 6 2 6 6 3 3 5 11 6 9 6 5 3 3 3 0 0 5 8 12 11 5 8 8 10 9 8 11 11 8 8 3 2 6 5 3 2 1 1 1 3 3 3 2 5 7 10 10 10 10 11 12 12 14 15 16 16 12 10 11 12 12 12 11 10 9 8 9 9 9 9 9 7 7 7 7 7 7 6 5 4 5
1 2 3 0 3 4 6 8 7 3 4 6 3 4 5 2 2 1 1 1 3 8 3 4 8 8 7 8 6 7 2 3 5 8 8 6 4 3 1 0 1 1 1 1 2 2 3 3 4 6 9 11 12 11 12 12 12 14 16 16 18 16 12 11 11 11 11 10 9 8 9 9 8 11 10 10 11 10 10 9 8 6 5 4 4 5
5 6 2 3 3 5 7 9 5 3 2 2 5 6 4 2 1 4 2 5 8 8 2 3 2 3 18 18 4 9 11 10 11 9 9 8 8 7 4 0 1 0 1 2 2 3 3 5 7 8 10 11 13 14 15 15 15 15 16 18 19 18 14 12 11 13 12 10 10 9 9 9 8 10 10 11 10 11 10 9 9 8 7 6 5 6
3 4 3 5 2 6 8 9 5 2 7 7 10 8 6 5 5 7 3 2 4 3 1 3 2 9 13 13 16 22 22 19 16 10 10 9 12 12 6 4 3 3 3 2 3 4 4 5 7 8 10 11 11 13 14 14 15 15 15 18 19 19 14 13 13 13 12 12 10 9 9 7 8 9 10 9 10 11 9 9 11 11 10 9 8 8
6 6 9 12 6 10 10 13 11 7 13 13 3 10 7 6 4 5 3 5 5 1 3 3 3 7 3 4 3 6 8 6 6 7 4 7 11 11 8 7 10 5 3 3 5 5 6 7 8 8 10 11 11 13 14 14 16 16 16 18 20 20 13 13 13 12 12 10 10 8 6 6 7 8 7 6 6 6 7 8 9 9 8 9 9 9
11 6 3 8 4 11 14 2 6 7 3 3 1 3 1 10 2 8 1 1 0 0 2 2 8 4 8 5 5 4 6 8 4 6 6 11 12 10 10 13 5 5 7 7 7 7 9 8 8 8 9 9 10 13 13 15 15 16 16 17 19 19 12 13 12 12 12 10 8 8 9 9 8 5 4 4 4 7 8 5 7 9 9 7 8 7
3 8 4 1 2 7 5 2 3 3 9 8 6 8 6 5 3 3 1 3 1 1 10 4 7 12 9 19 15 19 13 11 5 6 5 10 10 6 9 12 1 4 7 6 8 8 8 7 7 8 9 9 10 11 13 14 15 17 17 17 19 20 11 13 12 12 12 11 10 11 11 9 9 8 9 8 8 8 6 5 5 5 6 7 7 7
4 1 2 3 8 1 2 3 2 6 2 9 7 8 3 1 4 3 7 2 3 9 6 3 9 14 1 13 6 2 8 12 9 11 11 10 9 9 10 11 3 5 6 7 8 7 6 7 8 8 8 10 11 12 13 15 15 15 16 17 18 20 14 13 13 13 11 12 11 10 11 10 11 10 9 8 9 7 7 5 4 3 5 6 6 7
2 7 3 3 3 2 1 2 1 3 6 2 1 2 8 4 6 6 2 6 5 4 5 6 7 10 12 17 1 4 6 7 10 12 11 11 13 12 12 14 4 4 4 5 7 6 7 7 8 10 10 10 10 11 12 12 13 13 16 15 17 19 13 14 12 12 10 11 8 9 11 12 10 8 7 7 6 8 7 8 8 8 7 6 7 8
2 7 2 1 2 2 1 6 11 7 1 2 1 2 4 2 4 7 6 1 2 8 1 4 2 12 9 8 9 17 13 13 10 8 10 12 10 8 11 5 2 3 6 6 5 6 6 7 9 10 11 11 12 11 11 12 11 12 13 15 16 17 12 11 12 12 12 12 10 9 9 9 9 9 8 9 10 8 7 7 8 8 8 8 7 8
5 2 7 4 3 2 6 8 10 11 11 7 7 7 3 2 4 3 2 3 4 4 4 5 8 10 14 9 10 12 13 12 11 11 9 8 9 11 5 3 2 5 7 5 4 3 5 6 7 8 9 9 9 9 10 11 12 12 12 13 15 18 16 14 13 11 11 10 11 11 11 11 10 8 8 7 8 8 9 8 8 8 7 8 8 9
3 5 8 6 4 9 4 3 7 13 17 15 16 15 16 10 6 5 7 4 0 4 3 2 11 11 14 9 8 10 9 7 9 10 8 6 9 9 2 3 6 6 6 3 2 2 2 4 5 6 7 7 8 10 11 11 11 13 14 13 13 15 13 12 13 13 12 11 11 13 12 10 8 10 10 9 9 9 8 8 8 7 8 8 8 9
5 2 2 4 8 8 2 1 2 5 6 4 5 8 10 11 10 8 11 4 1 3 3 1 4 17 5 4 5 7 6 8 7 6 7 9 8 5 3 5 6 7 5 1 2 3 3 3 4 6 8 9 11 11 12 12 12 12 13 13 13 14 12 12 12 11 11 11 11 13 11 9 9 9 11 11 10 10 8 8 7 7 9 9 9 8
4 2 3 8 2 1 2 1 3 3 3 5 7 2 1 10 10 8 4 2 6 4 4 5 6 14 12 8 3 2 1 3 2 5 7 7 7 4 3 6 8 3 4 2 1 2 2 3 4 6 8 9 10 11 13 12 12 12 13 13 13 15 14 13 12 11 11 11 11 12 11 10 8 10 9 10 8 10 9 8 8 8 8 8 9 10
5 4 4 4 4 2 3 2 3 3 2 4 5 6 9 8 9 1 4 0 3 9 10 7 14 13 12 1 3 0 2 4 6 5 4 7 8 7 6 6 5 4 2 2 3 3 3 4 6 8 9 10 10 10 11 12 12 13 13 13 14 13 12 13 11 12 12 12 13 12 12 13 12 12 10 9 9 11 10 10 9 8 9 9 9 9
4 6 8 7 9 11 10 9 10 7 9 6 3 6 7 11 10 5 9 5 10 9 15 11 12 19 17 6 4 3 1 5 6 5 4 8 8 5 7 4 4 3 3 5 5 5 6 6 6 8 10 9 10 10 11 12 12 13 13 14 13 13 13 12 11 12 13 13 13 13 14 13 13 14 12 10 9 9 9 9 9 10 8 10 11 10
2 2 8 11 12 14 12 6 4 8 6 7 13 12 12 14 14 11 3 6 13 16 11 12 18 23 25 19 12 5 4 6 8 7 7 8 8 7 7 6 4 4 6 8 6 4 4 6 10 11 11 9 10 11 10 12 12 12 13 14 14 13 13 11 12 12 12 13 14 13 14 13 13 12 12 12 12 9 9 9 9 9 10 10 11 11
3 1 9 13 17 16 16 17 8 10 10 12 15 14 14 13 16 15 14 18 20 9 17 17 22 17 24 28 20 8 5 5 6 6 5 7 8 5 2 3 7 9 7 4 5 6 8 9 8 11 12 11 10 11 10 11 11 12 13 13 13 13 13 9 12 13 13 13 13 13 14 12 12 11 10 9 10 11 11 9 8 9 9 10 11 11
6 9 12 14 18 18 18 20 12 11 14 11 15 14 15 18 16 17 21 23 21 15 19 18 17 16 22 27 22 14 8 13 11 8 9 8 3 2 6 9 8 5 5 7 9 8 8 9 11 11 11 11 11 12 13 11 12 11 11 12 12 13 15 12 13 13 14 13 14 13 12 12 11 9 8 9 10 10 10 10 8 7 8 10 10 8
5 10 12 14 16 18 20 20 18 11 15 16 12 12 13 15 18 22 23 25 25 21 15 17 21 23 20 24 21 5 8 11 13 7 8 2 7 10 9 7 7 8 8 9 10 11 10 12 11 11 11 11 13 12 12 12 13 14 14 14 13 14 13 12 13 14 14 14 13 11 11 11 10 11 11 12 11 10 10 10 9 8 8 10 10 10
2 7 11 7 7 12 18 18 18 17 10 10 10 4 9 14 20 23 23 21 19 18 19 21 26 26 22 25 12 11 15 6 5 10 11 11 10 10 10 9 7 9 10 10 10 10 11 10 9 8 10 12 15 15 13 13 12 12 13 13 13 13 13 13 14 14 14 14 12 11 11 10 10 11 12 11 10 9 11 10 9 6 6 8 9 9
5 5 3 3 8 11 16 19 20 15 9 8 11 12 14 17 20 18 20 12 16 21 23 21 20 20 25 13 8 21 13 7 12 12 10 8 10 11 13 13 11 12 13 12 13 12 10 11 11 11 13 15 15 14 12 12 12 12 14 13 14 13 11 12 13 14 14 13 11 11 11 10 10 10 10 10 10 11 11 10 11 11 11 7 7 8
4 1 5 5 11 12 16 14 15 11 8 10 15 21 27 22 18 10 14 18 24 21 17 14 18 21 20 16 12 19 17 12 10 7 7 11 14 15 16 16 16 19 18 17 17 16 15 16 14 13 12 10 11 12 14 12 11 14 14 13 13 11 12 13 14 13 13 12 12 12 11 11 11 11 10 10 12 11 11 11 11 12 11 13 8 7
9 10 9 5 7 6 15 14 5 6 14 14 16 25 24 21 20 21 21 24 22 16 15 17 16 15 16 18 20 20 19 11 11 9 12 13 13 14 16 15 19 18 19 19 19 19 16 12 10 10 12 12 12 11 8 11 12 10 10 11 11 13 13 14 14 14 14 12 12 12 12 11 11 10 9 11 12 11 11 12 12 10 9 7 6 8
11 11 10 6 5 7 10 8 9 16 14 12 13 9 16 17 19 24 27 25 20 17 15 19 21 24 27 24 17 15 13 9 9 12 12 16 16 16 18 17 15 11 13 18 19 17 15 13 11 11 9 12 13 9 8 10 10 9 10 11 12 13 13 13 12 12 12 12 12 11 11 11 11 9 9 12 11 11 11 11 10 11 10 7 10 12
11 12 7 5 5 3 5 8 11 9 3 3 6 13 11 13 17 18 21 21 24 22 20 20 24 26 26 25 22 14 17 14 10 12 16 19 13 9 14 15 12 16 18 16 16 17 15 13 15 14 15 11 6 7 9 10 10 11 11 10 12 11 12 12 12 12 12 12 12 13 12 13 11 8 9 11 10 10 10 9 9 10 8 7 5 5
11 6 6 6 7 10 5 11 14 7 12 9 8 10 10 11 12 14 13 17 21 21 20 22 25 25 24 24 21 19 15 11 16 19 23 18 14 16 17 16 16 18 17 17 15 16 15 13 12 10 6 5 7 8 9 9 10 10 10 11 11 11 11 12 12 13 13 12 12 13 12 12 11 10 11 11 12 12 11 11 11 10 7 7 7 9
14 16 10 10 7 11 12 13 8 11 14 12 19 18 13 8 11 10 14 15 13 14 17 21 23 24 25 21 18 17 1 4 15 16 23 14 15 21 20 17 19 18 18 18 15 12 12 8 4 2 5 6 7 8 7 9 11 11 10 10 10 12 11 12 14 13 13 13 12 11 12 12 12 13 12 13 14 15 14 14 12 12 11 13 12 11
17 16 11 12 5 9 11 11 11 12 11 6 15 13 4 6 6 7 2 14 11 21 18 16 19 22 19 16 18 12 3 10 14 17 18 13 13 12 12 16 18 17 16 15 14 12 10 6 4 4 5 6 8 8 9 10 11 10 11 11 11 12 12 13 13 13 13 12 11 11 10 11 11 11 11 12 13 13 13 13 12 11 11 10 6 10
16 13 10 15 14 11 11 11 9 4 10 10 8 6 5 7 12 8 11 8 18 21 13 12 15 12 14 16 16 13 10 11 13 16 19 12 6 8 11 13 12 11 11 7 5 5 3 3 4 4 7 9 10 9 11 12 11 11 11 11 11 12 13 13 12 11 11 11 10 7 9 10 11 12 13 14 12 10 10 8 6 7 7 8 6 5
12 11 12 20 12 15 20 11 7 9 5 4 6 4 4 10 10 10 14 13 4 3 8 10 14 16 16 16 12 10 15 18 19 20 9 2 0 3 3 3 3 3 4 4 4 1 3 4 6 6 7 5 7 9 10 10 8 11 9 11 11 12 12 11 10 11 11 10 10 8 9 7 10 12 11 10 11 9 9 8 9 9 10 9 7 7
6 6 6 12 15 13 11 15 11 9 6 7 6 9 10 7 8 13 10 3 8 5 7 13 13 14 13 15 13 13 15 17 19 20 13 5 5 2 1 1 2 2 1 2 1 2 2 2 2 1 2 4 7 8 8 10 11 9 10 10 10 11 10 10 10 10 10 8 8 9 10 10 9 9 9 8 8 7 6 6 8 9 10 7 8 10
6 8 7 12 9 11 9 12 9 14 5 19 6 4 4 10 14 11 3 3 2 4 6 4 9 10 12 12 14 14 15 16 14 13 12 9 6 6 3 3 4 4 3 1 1 2 3 3 3 3 4 4 6 7 6 9 11 8 8 7 9 9 9 10 10 9 7 8 11 10 10 9 10 10 8 7 8 11 9 7 9 9 9 9 8 9
8 8 4 7 8 7 11 11 7 7 4 3 14 13 10 19 3 4 4 3 4 4 5 5 7 10 10 12 13 13 13 11 9 7 7 7 4 2 3 4 3 2 2 2 2 4 3 3 3 4 3 4 5 4 5 8 9 9 8 7 9 8 6 7 8 9 10 10 10 10 9 9 10 9 7 10 9 8 9 9 8 7 7 7 7 7
10 12 7 12 7 10 7 10 3 1 2 7 11 10 8 14 13 8 4 6 8 7 2 2 6 8 9 12 13 12 11 10 10 6 7 8 6 5 5 5 3 4 3 3 4 3 2 5 6 5 4 5 4 4 5 5 9 9 10 7 7 7 9 10 10 10 10 11 11 9 9 9 8 8 8 8 9 9 8 9 8 7 5 6 6 6
2 1 6 4 4 7 8 4 5 5 2 10 11 9 9 11 14 13 11 11 10 11 2 4 9 12 9 9 10 10 10 12 10 8 8 8 7 4 2 2 3 1 1 1 1 2 3 6 6 6 7 5 5 5 5 5 8 12 7 6 7 8 9 10 11 10 11 9 9 10 10 10 8 8 8 9 6 6 6 8 8 7 7 7 7 7
2 3 2 1 2 5 5 6 11 9 7 11 12 13 11 8 8 3 4 6 10 10 7 10 11 8 6 6 9 11 11 10 10 9 8 7 8 8 5 4 4 5 5 5 4 6 6 7 7 8 8 9 5 6 6 7 5 6 7 9 8 9 10 11 11 10 9 9 7 8 10 9 7 6 7 6 6 6 7 7 7 8 8 8 7 7
4 0 1 2 3 4 6 12 14 12 12 9 8 9 13 13 11 7 7 7 6 6 5 8 4 7 5 6 12 12 12 7 8 10 8 9 6 5 6 6 6 5 3 2 4 5 5 7 7 7 8 7 4 4 4 5 5 6 8 8 9 9 10 10 10 9 9 10 7 6 7 7 11 10 7 7 7 7 7 6 6 7 8 8 8 7
3 8 6 2 7 6 7 10 12 13 12 11 11 8 8 9 12 13 9 8 8 11 12 10 9 12 9 13 8 7 11 12 10 9 9 6 7 6 6 5 5 5 6 6 6 7 6 6 8 6 6 6 3 5 5 5 5 6 7 8 8 10 10 9 10 9 10 8 6 6 6 7 7 7 8 7 6 5 5 7 7 6 4 1 3 4
1 7 3 3 8 5 8 9 4 10 11 12 9 8 12 9 5 12 13 11 11 12 13 14 14 10 10 11 10 10 13 14 10 8 11 10 9 6 6 6 5 6 5 4 4 4 5 5 6 8 9 5 3 5 6 7 6 5 5 7 8 9 10 10 8 8 8 6 6 6 6 6 6 5 6 7 6 6 4 8 7 4 3 4 3 5
11 10 9 8 9 11 10 10 10 10 11 14 15 14 10 6 4 8 13 15 15 13 13 12 14 14 12 14 10 10 14 13 11 8 8 8 8 7 7 9 9 8 7 8 8 8 8 7 7 7 8 4 4 5 7 7 6 5 5 6 7 9 10 10 7 6 6 7 6 7 6 6 6 5 5 5 6 6 6 6 5 7 8 7 6 5
Wind_Direction
310 174 198 200 218 199 194 199 67 84 75 89 88 150 211 262 270 127 243 65 271 288 256 256 262 270 275 271 266 266 261 240 249 253 253 247 241 244 247 246 244 242 246 119 180 194 194 191 191 186 185 191 193 196 195 192 192 192 186 173 180 176 170 158 159 166 159 165 151 156 172 158 147 143 135 130 136 137 133 138 136 150 154 144 139 143
249 218 222 232 45 116 152 107 116 92 31 135 130 250 225 187 274 97 96 71 131 241 283 112 283 275 276 278 268 257 252 265 257 250 246 247 239 242 246 249 245 244 245 204 204 189 190 191 185 184 189 189 192 197 193 194 191 189 188 185 187 170 176 177 174 166 173 178 173 170 172 155 147 145 161 153 152 117 117 125 128 155 158 150 141 136
198 208 229 99 96 83 92 133 138 183 143 105 260 160 293 254 281 253 35 103 152 181 271 291 281 275 278 280 277 262 249 253 255 249 257 262 255 247 245 247 252 246 247 225 225 191 190 185 183 188 195 198 201 192 193 193 188 189 191 192 183 173 177 184 177 169 178 176 124 162 145 146 123 64 69 108 117 99 91 71 123 158 150 154 146 143
220 228 234 122 129 118 81 138 145 126 167 191 175 198 243 51 343 280 118 62 154 226 309 322 295 280 277 269 265 260 245 248 252 252 256 252 255 253 250 250 252 251 247 234 215 198 183 183 187 193 198 198 196 193 191 192 193 189 193 196 185 174 180 181 177 167 116 91 89 80 97 78 88 133 101 93 104 101 101 129 168 126 137 174 157 141
195 70 30 153 161 162 143 158 170 185 209 210 219 227 249 206 220 244 345 295 156 239 330 287 279 267 250 261 270 262 269 264 264 262 256 248 241 251 264 266 251 254 254 248 225 184 177 186 195 197 196 193 196 196 194 192 191 190 193 197 181 172 177 179 168 146 129 119 108 104 92 91 90 90 115 129 128 126 134 160 168 157 147 169 174 146
251 115 126 126 135 115 127 173 196 186 229 189 225 224 235 236 250 111 339 335 284 251 138 300 310 265 165 246 262 282 301 274 247 234 249 246 238 239 248 251 252 242 240 246 246 207 185 193 195 196 194 195 198 199 197 192 191 186 187 195 177 170 175 177 164 149 151 157 148 146 146 153 156 151 169 176 169 168 178 187 142 121 153 166 146 151
242 114 169 152 156 163 195 199 182 207 219 221 226 208 232 237 59 144 260 316 271 285 79 263 280 282 158 267 254 263 266 271 268 228 254 249 236 227 238 245 242 237 240 235 237 229 189 194 192 196 196 198 200 201 190 189 189 185 185 195 180 174 178 170 158 161 159 162 167 167 171 166 167 165 185 174 167 162 160 140 152 153 158 169 155 147
137 160 132 125 138 166 175 204 194 197 193 217 54 116 181 183 210 215 200 215 274 342 233 178 222 282 286 240 238 246 256 276 290 283 265 245 233 240 246 250 251 250 239 228 224 222 215 196 195 200 198 197 201 190 187 187 187 188 190 195 178 177 179 170 167 172 177 168 169 173 175 173 176 177 169 169 161 135 124 141 143 146 164 167 150 146
178 168 181 166 184 183 206 181 148 187 200 39 64 209 144 177 174 148 195 210 330 359 286 145 176 260 268 118 47 73 249 264 269 269 274 268 211 240 249 252 256 265 263 240 232 219 206 203 202 199 194 196 193 187 187 188 188 189 196 197 184 184 177 168 171 177 184 178 174 176 175 176 183 170 142 124 119 138 152 137 141 155 164 165 145 139
325 264 208 193 169 209 116 12 195 172 200 152 132 91 87 80 69 111 124 183 226 288 269 143 182 251 283 256 150 62 215 242 253 262 265 276 306 268 259 262 266 284 273 255 252 243 219 207 198 194 188 188 191 186 184 180 184 195 199 195 182 188 177 174 177 182 187 187 180 185 180 178 159 132 114 135 147 153 161 154 159 161 174 169 164 131
15 218 322 191 222 70 108 53 8 10 55 131 171 104 85 68 85 82 56 77 152 245 255 142 181 234 290 274 158 154 200 208 226 257 282 282 232 262 253 267 293 305 278 264 259 253 243 202 191 177 188 187 184 185 184 184 184 197 199 196 195 189 179 176 179 182 186 188 193 193 181 177 151 152 154 156 156 155 162 162 165 172 177 172 167 134
142 80 172 258 63 109 103 85 39 39 134 157 146 135 129 122 117 152 115 155 225 259 121 154 183 210 216 274 163 168 47 306 253 248 257 285 293 284 28 23 45 1 320 286 260 231 198 171 181 184 193 189 187 184 185 186 189 199 200 198 199 198 189 177 179 181 186 187 192 197 184 183 170 163 168 169 164 169 171 169 168 169 161 171 156 144
228 208 115 97 266 148 145 97 73 89 257 226 145 152 191 207 123 218 173 214 200 239 76 349 185 290 235 246 341 292 273 272 240 238 264 282 289 268 258 292 209 264 243 252 241 226 203 194 186 191 194 190 191 191 187 187 192 197 198 198 199 201 190 180 179 186 186 186 189 191 184 181 169 178 173 172 168 171 171 169 167 167 172 165 162 166
232 74 170 152 119 244 188 158 140 167 206 196 183 181 183 218 217 253 199 347 330 265 68 23 132 248 280 298 252 255 253 246 255 238 240 257 266 273 258 230 216 187 225 236 224 225 216 205 197 193 193 195 194 192 190 190 196 198 199 199 201 202 186 175 183 187 188 191 191 189 184 177 179 186 182 182 176 177 175 171 173 176 172 170 174 168
236 229 208 144 219 162 209 210 176 169 172 200 193 177 204 184 193 218 180 227 239 300 55 278 157 244 233 194 33 257 295 310 288 290 267 253 260 267 275 260 239 222 232 229 232 219 212 210 201 193 194 194 194 190 189 191 198 201 202 201 202 202 183 179 185 187 187 185 186 180 169 165 181 190 192 191 190 179 170 176 174 176 170 167 166 165
224 268 71 175 3 152 193 206 89 97 100 170 326 16 296 230 73 254 353 278 34 85 189 201 228 252 233 12 290 251 265 273 236 261 262 267 265 262 275 269 211 189 227 223 225 224 219 208 198 198 197 197 194 191 190 194 197 204 204 203 203 204 178 181 184 189 187 185 175 172 175 180 178 169 151 162 176 194 197 199 184 173 167 161 148 139
69 236 83 329 80 200 182 41 181 156 209 169 141 211 211 3 165 84 91 85 87 314 257 201 269 261 277 274 233 237 232 242 236 251 249 252 255 260 260 263 187 188 216 215 223 227 216 192 201 202 200 196 194 191 194 196 199 203 202 202 203 204 178 180 184 189 186 180 174 181 180 176 176 173 180 182 183 191 186 187 204 176 157 133 134 133
211 163 18 141 204 258 32 304 57 24 9 104 212 202 75 36 4 184 237 133 204 240 262 129 237 265 284 280 72 89 242 250 246 252 247 250 255 264 257 260 197 215 216 216 226 230 213 202 200 199 203 202 197 192 193 196 198 202 202 204 204 205 191 181 184 192 189 184 183 178 181 181 180 179 182 187 184 176 175 178 182 143 147 154 134 132
150 253 143 339 7 61 23 199 161 63 358 329 62 119 179 197 213 186 223 229 218 221 254 234 256 266 237 250 226 248 192 236 237 238 242 250 252 247 258 258 173 211 212 219 224 209 203 200 200 197 200 202 200 197 196 194 194 201 205 204 209 208 195 182 185 191 189 187 182 183 187 183 179 179 180 181 162 179 178 176 178 169 155 129 136 140
200 230 206 331 164 56 174 185 205 169 53 56 101 196 6 321 241 170 203 305 233 250 171 262 218 264 225 222 209 238 225 223 232 228 231 234 246 248 243 291 317 214 221 223 215 204 198 197 196 195 194 193 195 193 194 194 196 197 196 205 209 213 198 183 189 192 188 190 189 184 181 185 182 179 170 178 182 182 181 177 172 163 150 153 150 154
198 107 255 99 308 181 183 201 215 155 177 188 202 205 174 205 357 335 341 206 225 246 234 281 284 265 262 175 195 212 212 212 214 227 234 230 233 245 260 264 266 246 239 231 216 206 197 193 192 193 192 191 189 192 192 195 195 196 198 199 202 208 206 190 190 192 191 187 190 183 186 182 177 172 174 166 175 179 182 176 175 169 154 145 162 156
190 158 228 131 181 213 224 148 225 190 184 183 186 200 195 161 180 194 233 98 235 233 228 185 257 273 274 110 191 210 203 200 212 217 234 249 245 254 253 207 199 223 260 273 308 285 218 202 197 192 186 185 182 188 192 194 195 198 201 199 196 205 202 183 187 193 193 192 191 190 190 185 173 175 176 175 171 180 177 172 174 154 144 159 156 162
177 78 219 190 206 210 126 59 352 341 333 308 238 224 200 197 182 187 226 174 67 237 34 269 305 264 229 99 143 196 190 206 203 195 220 238 250 260 263 246 207 205 211 179 331 303 273 223 213 196 192 194 194 194 194 194 196 199 198 197 198 198 194 184 186 188 193 192 189 190 186 176 179 173 178 179 178 180 168 166 164 154 160 162 157 165
95 195 206 244 87 348 210 105 73 33 13 294 257 77 114 211 201 219 249 145 193 146 221 206 230 267 265 97 155 54 5 17 320 213 208 254 262 248 224 287 288 224 167 132 167 261 260 252 222 202 193 195 194 195 196 195 195 196 197 199 200 203 191 187 186 182 190 191 190 187 182 181 174 174 175 179 179 176 165 160 160 159 163 160 160 164
172 216 211 239 245 188 189 178 212 73 141 230 244 181 214 220 199 124 65 15 242 204 214 190 237 245 269 86 100 148 180 221 239 228 222 253 265 258 220 201 243 291 329 180 211 218 215 223 230 228 211 194 196 198 197 197 197 197 198 195 200 202 192 190 185 182 190 189 189 187 187 186 178 181 181 177 171 178 165 162 160 164 167 159 165 167
168 162 163 209 223 234 226 205 214 188 200 197 229 231 197 203 182 131 228 192 237 226 216 221 248 256 252 120 126 182 202 268 255 243 226 231 247 265 300 294 202 201 238 241 196 189 221 221 226 233 227 204 190 192 196 199 199 200 200 201 196 197 196 188 181 186 186 187 189 190 190 185 180 184 182 174 170 166 164 165 163 164 165 165 166 163
174 222 193 199 217 232 239 254 57 104 110 189 219 185 199 202 194 202 222 216 223 235 231 221 233 251 265 260 228 156 204 210 238 221 221 236 243 231 222 247 285 274 242 228 234 204 176 217 228 233 232 228 195 186 193 198 199 199 199 199 196 194 195 184 181 186 190 188 189 188 191 186 185 180 178 179 180 168 165 168 167 165 164 167 167 164
77 221 222 225 230 240 247 249 200 161 179 206 211 206 191 176 192 198 204 225 223 232 247 233 230 244 261 266 256 225 174 234 241 250 229 267 243 249 213 222 236 237 235 244 231 220 216 219 225 230 228 222 214 189 191 202 202 199 199 197 194 192 191 180 179 187 193 191 193 192 188 184 184 182 176 171 169 172 171 163 162 166 162 166 169 170
177 221 215 220 236 243 252 257 235 193 216 202 210 196 187 192 191 199 218 229 223 218 234 245 236 235 249 260 264 250 220 242 232 217 223 233 348 337 237 232 226 235 251 232 238 228 217 214 219 219 218 220 217 201 192 197 204 202 202 199 195 191 195 184 179 189 193 194 198 195 182 176 177 173 161 160 167 169 169 167 165 158 160 168 172 169
159 229 228 219 234 241 247 250 251 208 234 241 230 218 194 182 191 202 218 222 224 231 244 261 259 251 249 258 259 249 234 231 242 206 235 189 226 236 243 251 246 241 230 233 231 223 220 222 217 208 205 210 217 210 193 195 202 202 197 197 195 192 190 180 183 189 192 196 197 188 179 174 162 168 169 174 176 171 168 173 170 163 161 172 174 167
187 235 225 237 249 250 251 255 258 252 242 251 248 220 219 208 206 208 216 226 230 244 247 245 249 256 252 252 285 285 264 275 257 239 230 232 238 252 256 244 238 247 244 233 234 233 223 220 220 210 201 213 215 213 198 196 198 198 198 197 193 193 191 182 184 190 192 196 192 180 174 174 171 165 169 174 170 170 175 173 171 165 151 169 171 161
159 255 261 221 243 248 252 249 251 255 249 252 257 234 225 217 223 220 230 224 229 233 232 242 251 254 259 252 241 267 266 230 231 227 227 241 248 251 253 249 234 232 238 238 232 230 229 224 217 205 211 211 211 209 199 194 191 188 198 192 189 188 182 183 188 189 192 191 182 177 172 175 166 167 168 160 173 180 184 181 181 183 181 167 150 165
166 206 229 212 231 236 247 240 248 258 262 254 246 244 239 233 236 241 238 233 234 232 241 235 234 241 256 268 271 264 258 253 258 248 226 237 235 232 236 239 242 246 247 249 250 244 231 222 209 209 212 208 208 205 206 187 176 194 194 186 185 170 176 187 192 191 191 187 182 178 174 173 171 170 168 171 176 180 180 179 182 183 180 185 169 154
175 193 223 202 244 235 250 255 242 234 234 227 225 231 234 236 230 228 235 234 229 218 231 234 251 263 270 267 249 250 259 246 251 227 219 229 234 230 237 243 250 252 254 252 247 246 244 232 215 212 213 213 213 209 186 179 190 192 180 175 167 173 181 185 192 191 190 185 178 176 173 169 174 177 171 172 177 177 181 181 184 180 179 168 154 166
191 190 221 199 224 225 251 262 251 236 237 232 247 251 243 242 238 233 237 241 240 227 226 248 256 255 252 254 262 265 267 263 233 241 239 234 239 247 251 249 244 239 240 245 247 244 242 237 223 213 213 222 218 186 171 192 190 172 167 173 177 181 180 185 185 188 185 184 181 174 172 170 169 174 171 177 175 176 179 180 177 175 176 165 173 176
197 200 205 224 203 268 240 218 244 227 225 329 266 243 243 236 233 242 251 247 243 236 231 234 238 245 250 254 255 253 265 276 278 251 247 250 242 251 253 253 241 238 244 246 248 250 244 233 227 216 216 201 155 181 184 187 174 173 183 175 176 176 178 178 182 186 186 181 175 173 173 171 169 169 170 172 170 169 172 173 174 173 174 172 172 180
205 209 180 225 176 225 183 224 242 308 303 260 261 239 186 201 208 207 232 240 238 231 227 232 238 242 244 247 256 265 266 276 276 272 257 243 235 231 235 235 237 247 252 255 248 248 245 243 241 233 208 164 176 174 186 170 163 169 165 170 176 168 173 176 183 188 188 187 179 178 171 169 168 167 172 170 167 169 168 170 176 182 169 163 169 174
203 217 190 214 204 200 235 248 248 243 242 236 241 249 246 231 239 218 226 254 260 248 228 230 238 243 246 253 259 258 339 290 267 264 265 253 226 235 233 245 251 252 252 254 256 252 253 250 267 128 180 171 181 179 163 160 163 164 164 169 169 170 178 181 190 189 182 185 179 166 163 168 172 175 175 172 174 176 179 181 182 179 177 180 180 184
213 215 213 216 212 202 215 229 231 238 243 226 252 258 219 172 148 92 221 252 247 254 242 235 240 244 252 256 253 249 173 250 251 257 276 267 236 237 228 232 238 245 247 248 251 252 249 231 209 184 173 179 184 177 162 156 154 157 168 170 171 175 182 189 189 184 179 179 169 167 162 170 175 172 172 178 179 179 180 180 181 181 179 186 166 180
208 213 211 224 222 219 233 235 231 199 248 225 243 232 209 136 120 104 230 235 238 247 249 230 241 252 247 243 246 238 210 240 251 262 264 280 260 206 206 220 231 241 251 265 275 271 289 180 150 184 190 192 190 158 156 154 163 171 168 170 166 177 188 188 186 175 171 171 163 153 157 169 171 175 178 180 179 180 179 166 148 152 157 171 166 148
209 214 205 221 211 220 221 245 252 251 242 248 235 181 176 157 141 198 230 239 224 170 198 189 208 216 230 240 231 238 230 231 243 251 265 109 350 259 275 332 318 344 295 290 268 201 220 208 212 208 203 185 147 150 154 154 152 170 172 164 171 187 185 175 167 161 165 156 153 155 163 163 175 176 178 178 175 170 169 165 160 156 167 170 163 156
216 207 216 218 225 226 222 228 235 256 224 206 238 155 160 141 216 220 233 165 146 199 178 194 200 213 222 230 230 232 239 235 238 250 249 233 229 343 249 300 303 254 289 325 332 217 209 199 220 179 129 144 150 154 158 160 164 168 163 172 185 179 167 161 159 158 156 151 150 157 166 170 172 172 169 164 151 146 150 156 159 163 166 165 162 165
181 213 193 206 219 228 231 237 233 243 158 213 151 53 252 225 233 224 174 214 166 174 172 211 211 219 216 234 236 237 242 247 246 253 269 280 257 243 202 214 227 232 229 202 188 219 189 174 185 176 162 145 151 158 158 162 169 168 161 176 167 157 152 155 154 146 143 148 160 163 165 166 165 164 161 156 156 158 152 148 156 161 162 162 162 167
161 230 209 226 200 222 215 221 224 242 268 145 159 218 180 223 221 139 158 228 210 167 196 202 221 226 226 228 240 244 249 267 287 258 281 286 281 281 248 244 245 247 211 208 207 175 180 158 145 137 128 149 151 154 154 164 162 165 167 168 161 147 136 143 147 147 151 157 157 160 160 161 162 158 153 158 153 155 153 155 157 154 161 157 158 157
149 225 203 244 172 214 220 236 237 39 244 220 218 248 229 226 239 217 214 249 272 265 150 227 259 245 234 233 241 245 265 249 254 260 236 252 230 222 218 219 225 240 220 189 176 159 168 153 147 136 136 151 153 154 159 165 158 160 172 165 141 142 151 150 149 151 156 158 159 156 157 158 154 151 154 154 154 152 150 152 149 150 152 148 157 162
164 58 21 360 280 309 296 309 18 334 260 250 243 246 248 237 237 240 240 253 248 259 205 217 266 267 248 239 241 249 226 246 246 237 218 231 218 230 228 226 211 218 286 56 104 163 129 112 120 134 141 146 159 162 165 167 164 166 165 136 147 149 148 148 149 154 156 156 155 157 151 152 149 148 143 151 149 142 144 146 153 152 155 166 173 175
292 70 81 210 328 331 264 201 234 266 326 330 307 288 279 271 274 327 326 255 261 274 262 242 247 265 260 231 224 240 247 228 226 236 225 226 215 209 200 202 188 176 182 187 163 145 149 147 143 155 157 159 169 166 165 163 167 156 139 150 149 149 147 149 151 150 150 151 143 143 152 143 139 134 132 135 139 145 152 154 159 158 162 174 173 174
279 211 21 220 260 236 277 316 304 295 268 259 263 285 284 282 280 290 262 285 304 311 266 265 265 255 211 229 226 232 252 244 220 238 227 218 218 196 206 201 183 173 187 151 149 171 151 163 156 155 158 157 162 150 144 146 136 146 148 147 146 146 146 148 154 150 144 135 132 137 140 135 145 142 144 149 148 152 156 161 167 167 172 178 176 171
320 359 267 274 285 266 270 268 273 283 293 277 273 262 256 264 290 288 279 265 262 269 268 251 203 232 218 234 239 240 263 259 236 230 223 218 199 203 206 187 174 166 157 167 177 179 172 155 151 153 144 142 135 113 113 103 113 133 143 138 143 145 145 140 139 136 128 136 132 134 139 142 146 152 147 147 145 139 146 162 172 171 167 122 155 169
336 254 271 282 269 274 265 285 323 315 303 296 281 270 279 275 264 281 286 279 265 261 263 264 262 226 223 240 225 224 237 250 235 196 217 208 198 181 173 172 169 161 169 159 142 156 138 146 150 149 134 135 139 134 122 115 117 119 128 137 141 143 139 139 129 125 135 137 140 138 141 142 149 136 136 140 145 124 80 45 58 54 149 164 106 66
244 255 265 254 259 268 273 250 252 245 254 262 276 279 272 269 270 280 281 282 279 266 266 270 275 274 251 237 205 223 235 241 233 192 211 200 204 183 176 165 165 173 169 161 149 144 141 143 139 126 129 146 136 122 114 106 91 98 124 138 142 141 139 140 134 132 135 144 150 154 144 138 141 145 140 138 133 135 125 119 93 76 78 94 125 141